Big Rapids, MI

11:28 AM EST on December 07, 2016 (GMT -0500)
Roben-Hood

Weather History for KRQB - September, 2014

Change the Weather History Date:

Tuesday, September 30, 2014

  Actual Average Record
Temperature  
Mean Temperature 50 °F -  
Max Temperature 54 °F 64 °F 82 °F (2002)
Min Temperature 46 °F 41 °F 26 °F (2004)
Degree Days  
Heating Degree Days 15    
Moisture  
Dew Point 49 °F    
Average Humidity 96    
Maximum Humidity 100    
Minimum Humidity 86    
Precipitation  
Precipitation 0.00 in - - ()
Sea Level Pressure  
Sea Level Pressure 30.01 in    
Wind  
Wind Speed 6 mph (NNW)    
Max Wind Speed 10 mph    
Max Gust Speed 21 mph    
Visibility 9 miles    
Events      
Averages and records for this station are not official NWS values.
T = Trace of Precipitation, MM = Missing Value Source: NWS Daily Summary

Daily Weather History Graph

Daily Weather History Graph

Search for Another Location

Airport or City:

Trip Planner

Search our weather history database for the weather conditions in past years. The results will help you decide how hot, cold, wet, or windy it might be!

Date:

Astronomy

Sep. 30, 2014 Rise Set
Actual Time 7:38 AM EDT 7:24 PM EDT
Civil Twilight 7:09 AM EDT 7:53 PM EDT
Nautical Twilight 6:36 AM EDT 8:26 PM EDT
Astronomical Twilight 6:02 AM EDT 9:00 PM EDT
Moon 1:54 PM EDT (9/30) 11:45 PM EDT (9/30)
Length of Visible Light 12h 43m
Length of Day
11h 46m
Waxing Crescent, 38% of the Moon is Illuminated
Sep 30
Waxing Crescent
Oct 1
First Quarter
Oct 8
Full
Oct 15
Last Quarter
Oct 23
New

Hourly Weather History & Observations

Time (EDT) Temp. Dew Point Humidity Pressure Visibility Wind Dir Wind Speed Gust Speed Precip Events Conditions
12:14 AM 48.6 °F 48.6 °F 100% 29.98 in 10.0 mi NNW 9.2 mph - N/A   Overcast
12:35 AM 48.4 °F 48.4 °F 100% 29.98 in 10.0 mi NW 5.8 mph - N/A   Overcast
12:55 AM 48.2 °F 48.2 °F 100% 29.98 in 10.0 mi NW 6.9 mph - N/A   Overcast
1:14 AM 47.8 °F 47.8 °F 100% 29.98 in 7.0 mi NNW 8.1 mph - N/A   Overcast
1:35 AM 47.7 °F 47.7 °F 100% 29.97 in 2.5 mi NNW 5.8 mph - N/A   Overcast
1:55 AM 47.7 °F 47.7 °F 100% 29.97 in 4.0 mi NW 5.8 mph - N/A   Overcast
2:14 AM 47.5 °F 47.5 °F 100% 29.98 in 5.0 mi NW 5.8 mph - N/A   Overcast
2:35 AM 47.5 °F 47.5 °F 100% 29.98 in 5.0 mi NW 6.9 mph - N/A   Overcast
2:55 AM 47.5 °F 47.5 °F 100% 29.98 in 7.0 mi NW 5.8 mph - N/A   Overcast
3:14 AM 47.3 °F 47.3 °F 100% 29.99 in 3.0 mi NW 6.9 mph - N/A   Overcast
3:35 AM 46.8 °F 46.8 °F 100% 29.99 in 7.0 mi NW 6.9 mph - N/A   Overcast
3:55 AM 46.6 °F 46.6 °F 100% 29.98 in 10.0 mi NW 6.9 mph - N/A   Overcast
4:14 AM 46.9 °F 46.9 °F 100% 29.98 in 10.0 mi NW 4.6 mph - N/A   Overcast
4:35 AM 46.9 °F 46.9 °F 100% 29.99 in 4.0 mi NW 5.8 mph - N/A   Overcast
4:55 AM 46.8 °F 46.8 °F 100% 29.99 in 7.0 mi NW 5.8 mph - N/A   Overcast
5:14 AM 46.9 °F 46.9 °F 100% 29.99 in 10.0 mi WNW 6.9 mph - N/A   Overcast
5:35 AM 46.9 °F 46.9 °F 100% 29.99 in 10.0 mi NW 6.9 mph - N/A   Overcast
5:54 AM 46.9 °F 46.9 °F 100% 30.00 in 10.0 mi NW 4.6 mph - N/A   Overcast
6:14 AM 46.9 °F 46.9 °F 100% 30.00 in 10.0 mi NW 5.8 mph - N/A   Overcast
6:35 AM 46.8 °F 46.8 °F 100% 30.00 in 7.0 mi NNW 3.5 mph - N/A   Overcast
6:54 AM 46.8 °F 46.8 °F 100% 30.00 in 7.0 mi NW 5.8 mph - N/A   Overcast
7:14 AM 46.8 °F 46.8 °F 100% 30.00 in 7.0 mi NNW 4.6 mph - N/A   Overcast
7:35 AM 46.6 °F 46.6 °F 100% 30.00 in 2.5 mi North 4.6 mph - N/A   Overcast
7:54 AM 46.6 °F 46.6 °F 100% 30.01 in 10.0 mi NNW 3.5 mph - N/A   Overcast
8:14 AM 46.8 °F 46.8 °F 100% 30.01 in 10.0 mi NNW 3.5 mph - N/A   Overcast
8:35 AM 47.1 °F 47.1 °F 100% 30.01 in 10.0 mi North 6.9 mph - N/A   Overcast
8:54 AM 47.3 °F 47.3 °F 100% 30.02 in 10.0 mi North 8.1 mph - N/A   Overcast
9:14 AM 47.3 °F 47.3 °F 100% 30.01 in 10.0 mi North 6.9 mph - N/A   Overcast
9:35 AM 47.3 °F 47.3 °F 100% 30.02 in 10.0 mi North 8.1 mph - N/A   Overcast
9:54 AM 47.5 °F 47.5 °F 100% 30.02 in 10.0 mi North 8.1 mph - N/A   Overcast
10:15 AM 47.7 °F 47.7 °F 100% 30.01 in 10.0 mi North 8.1 mph - N/A   Overcast
10:35 AM 48.2 °F 48.2 °F 100% 30.01 in 10.0 mi North 5.8 mph - N/A   Overcast
10:54 AM 48.2 °F 48.2 °F 100% 30.01 in 10.0 mi NNW 5.8 mph - N/A   Overcast
11:15 AM 48.6 °F 48.2 °F 99% 30.02 in 10.0 mi North 6.9 mph - N/A   Overcast
11:35 AM 49.1 °F 48.4 °F 97% 30.03 in 10.0 mi NNW 4.6 mph - N/A   Overcast
11:54 AM 49.1 °F 48.4 °F 97% 30.03 in 10.0 mi North 8.1 mph - N/A   Overcast
12:15 PM 49.8 °F 48.4 °F 95% 30.03 in 10.0 mi NNW 8.1 mph - N/A   Overcast
12:35 PM 50.0 °F 48.6 °F 95% 30.03 in 10.0 mi NW 6.9 mph - N/A   Overcast
12:54 PM 50.2 °F 48.7 °F 95% 30.04 in 10.0 mi North 10.4 mph - N/A   Overcast
1:15 PM 50.7 °F 48.9 °F 94% 30.03 in 10.0 mi North 8.1 mph - N/A   Overcast
1:35 PM 52.7 °F 48.9 °F 87% 30.02 in 10.0 mi NW 4.6 mph - N/A   Overcast
1:54 PM 52.9 °F 48.9 °F 86% 30.02 in 10.0 mi North 4.6 mph - N/A   Overcast
2:15 PM 53.2 °F 49.5 °F 87% 30.01 in 10.0 mi North 6.9 mph - N/A   Overcast
2:35 PM 53.1 °F 49.3 °F 87% 30.01 in 10.0 mi North 5.8 mph - N/A   Overcast
2:54 PM 53.4 °F 49.3 °F 86% 30.01 in 10.0 mi North 4.6 mph - N/A   Overcast
3:15 PM 53.8 °F 49.6 °F 86% 30.01 in 10.0 mi North 4.6 mph - N/A   Overcast
3:54 PM 53.6 °F 50.0 °F 88% 30.01 in 10.0 mi NNW 3.5 mph - N/A   Overcast
4:15 PM 53.6 °F 49.5 °F 86% 30.01 in 10.0 mi NE 4.6 mph - N/A   Overcast
4:35 PM 54.0 °F 50.2 °F 87% 30.01 in 10.0 mi NE 3.5 mph - N/A   Overcast
4:54 PM 53.6 °F 50.0 °F 88% 30.01 in 10.0 mi North 5.8 mph - N/A   Overcast
5:15 PM 53.6 °F 50.0 °F 88% 30.01 in 10.0 mi North 4.6 mph - N/A   Overcast
5:35 PM 53.6 °F 50.0 °F 88% 30.01 in 10.0 mi NNW 3.5 mph - N/A   Overcast
5:54 PM 53.2 °F 50.2 °F 89% 30.01 in 10.0 mi NNE 4.6 mph - N/A   Overcast
6:15 PM 53.1 °F 50.2 °F 90% 30.01 in 10.0 mi NNE 4.6 mph - N/A   Overcast
6:34 PM 52.9 °F 50.4 °F 91% 30.01 in 10.0 mi NE 4.6 mph - N/A   Overcast
6:54 PM 52.7 °F 50.4 °F 92% 30.02 in 10.0 mi Calm Calm - N/A   Overcast
7:15 PM 52.7 °F 50.4 °F 92% 30.03 in 10.0 mi NNE 4.6 mph - N/A   Overcast
7:34 PM 52.5 °F 50.5 °F 93% 30.03 in 10.0 mi Calm Calm - N/A   Overcast
7:54 PM 52.3 °F 50.5 °F 94% 30.03 in 10.0 mi Calm Calm - N/A   Overcast
8:15 PM 52.3 °F 51.1 °F 95% 30.03 in 10.0 mi Calm Calm - N/A   Overcast
8:34 PM 52.0 °F 51.6 °F 99% 30.03 in 10.0 mi Calm Calm - N/A   Overcast
8:54 PM 52.0 °F 51.8 °F 99% 30.03 in 10.0 mi Calm Calm - N/A   Overcast
9:15 PM 52.2 °F 51.4 °F 97% 30.03 in 10.0 mi Calm Calm - N/A   Overcast
9:54 PM 52.2 °F 51.8 °F 99% 30.04 in 10.0 mi ENE 4.6 mph - N/A   Overcast
9:55 PM 49.8 °F 49.8 °F 100% 29.98 in 5.0 mi NNW 9.2 mph 20.7 mph N/A   Overcast
10:14 PM 49.5 °F 49.5 °F 100% 29.98 in 5.0 mi NNW 10.4 mph - N/A   Overcast
10:34 PM 49.3 °F 49.3 °F 100% 29.98 in 10.0 mi NNW 8.1 mph 16.1 mph N/A   Overcast
10:55 PM 52.2 °F 51.8 °F 99% 30.05 in 10.0 mi East 4.6 mph - N/A   Overcast
11:14 PM 52.0 °F 51.8 °F 99% 30.05 in 10.0 mi East 6.9 mph - N/A   Overcast
11:55 PM 52.0 °F 51.4 °F 98% 30.05 in 10.0 mi East 4.6 mph - N/A   Overcast